DW2802 Ogijares ES current weather conditions

sailwx.info

Wind from 240 at 0 knots gusting 4

Air temperature 25.6° C
Dewpoint 12.7° C

Last reported at 2017-Jun-26 07:56 UTC.
Time now 2017-Jun-26 08:58 UTC

Location: N 37°07' W 003°36'.
View on Google Maps.

See reports from other nearby stations

  
Tides and Currents Weather Stations Pressure Air Temp Water Temp Dewpoint Dewpoint Depression Visibility Wind Speed Wind Dir Waves Ship Positions
date/time (UTC)wind fromknots sea level pressurealtimeterstation pressurevisibilityair tempwater tempwave heightnotes
2017-Jun-26 07:56 240 0 gusting 4 25.6
2017-Jun-26 07:41 177 25.0
2017-Jun-26 07:26 177 25.0
2017-Jun-26 07:11 177 25.0
2017-Jun-26 06:56 177 24.4
2017-Jun-26 06:41 177 23.3
2017-Jun-26 06:26 177 22.8
2017-Jun-26 06:10 177 21.7
2017-Jun-26 05:55 177 21.7
2017-Jun-26 05:40 177 20.6
2017-Jun-26 05:25 177 20.6
2017-Jun-26 05:10 177 20.6
2017-Jun-26 04:55 177 21.1
2017-Jun-26 04:40 147 21.1
2017-Jun-26 04:25 147 21.1
2017-Jun-26 04:10 147 21.1
2017-Jun-26 03:55 147 4 gusting 7 20.6
2017-Jun-26 03:40 169 20.6
2017-Jun-26 03:25 179 21.1
2017-Jun-26 03:10 183 21.7
2017-Jun-26 02:55 183 22.2
2017-Jun-26 02:40 182 22.2
2017-Jun-26 02:25 183 22.8
2017-Jun-26 02:10 182 22.8
2017-Jun-26 01:55 183 22.8
2017-Jun-26 01:40 185 23.3
2017-Jun-26 01:25 191 0 gusting 5 23.3
2017-Jun-26 01:10 252 23.3
2017-Jun-26 00:55 287 2 gusting 6 23.9
2017-Jun-26 00:40 355 1 gusting 4 23.9
2017-Jun-26 00:25 023 23.9
2017-Jun-26 00:10 022 24.4
2017-Jun-25 23:55 315 24.4
2017-Jun-25 23:40 315 1 gusting 5 24.4
2017-Jun-25 23:25 360 25.0
2017-Jun-25 23:10 055 25.0
2017-Jun-25 22:55 274 25.0
2017-Jun-25 22:39 281 4 gusting 10 25.0
2017-Jun-25 22:24 262 4 gusting 11 25.0
2017-Jun-25 22:09 259 8 gusting 14 25.0
2017-Jun-25 21:54 250 8 gusting 13 25.6
2017-Jun-25 21:39 280 8 gusting 13 26.7
2017-Jun-25 21:24 290 5 gusting 9 27.2
2017-Jun-25 21:09 235 2 gusting 6 27.8
2017-Jun-25 20:54 218 6 gusting 12 28.3
2017-Jun-25 20:39 234 5 gusting 8 28.9
2017-Jun-25 20:24 219 3 gusting 6 28.9
2017-Jun-25 20:09 264 5 gusting 9 29.4
2017-Jun-25 19:54 164 1 gusting 9 30.0
2017-Jun-25 19:39 220 6 gusting 16 30.0
2017-Jun-25 19:24 257 7 gusting 13 30.6
2017-Jun-25 19:09 232 4 gusting 11 31.1
2017-Jun-25 18:54 216 3 gusting 9 31.7
2017-Jun-25 18:39 186 3 gusting 8 31.7
2017-Jun-25 18:24 166 0 gusting 8 32.2
2017-Jun-25 18:09 200 5 gusting 11 32.2
2017-Jun-25 17:54 187 1 gusting 6 31.7
2017-Jun-25 17:39 292 30.6
2017-Jun-25 17:24 299 31.1
2017-Jun-25 17:09 299 30.6
2017-Jun-25 16:54 299 30.6
2017-Jun-25 16:39 301 31.1
2017-Jun-25 16:24 301 1 gusting 6 31.1
2017-Jun-25 16:09 322 0 gusting 4 31.1
2017-Jun-25 15:54 296 4 gusting 12 31.1
2017-Jun-25 15:39 283 7 gusting 21 32.8
2017-Jun-25 15:24 347 3 gusting 10 32.8
2017-Jun-25 15:09 290 32.8
2017-Jun-25 14:54 338 32.8
2017-Jun-25 14:39 049 0 gusting 6 32.8
2017-Jun-25 14:24 013 32.8
2017-Jun-25 14:09 031 0 gusting 8 32.2
2017-Jun-25 13:54 054 31.7
2017-Jun-25 13:39 026 0 gusting 8 31.1
2017-Jun-25 13:24 005 5 gusting 13 30.6
2017-Jun-25 13:09 342 6 gusting 15 30.0
2017-Jun-25 12:54 296 7 gusting 15 30.6
2017-Jun-25 12:39 333 1 gusting 16 30.6
2017-Jun-25 12:24 209 1 gusting 12 31.1
2017-Jun-25 12:09 173 4 gusting 13 31.1
2017-Jun-25 11:54 139 2 gusting 12 31.1
2017-Jun-25 11:39 113 2 gusting 6 31.7
2017-Jun-25 11:24 286 1 gusting 6 31.7
2017-Jun-25 11:09 360 30.6
2017-Jun-25 10:53 337 30.0
2017-Jun-25 10:38 360 29.4
2017-Jun-25 10:23 360 28.9
2017-Jun-25 10:08 333 4 gusting 10 28.9
2017-Jun-25 09:53 271 3 gusting 8 28.9
2017-Jun-25 09:38 284 6 gusting 9 28.3
2017-Jun-25 09:23 311 6 gusting 9 28.3
2017-Jun-25 09:08 016 6 gusting 13 28.9
2017-Jun-25 08:53 067 3 gusting 6 28.9
2017-Jun-25 08:38 109 0 gusting 7 28.3
2017-Jun-25 08:23 054 27.8
2017-Jun-25 08:08 054 27.8
2017-Jun-25 07:53 054 26.7
2017-Jun-25 07:38 165 26.1
2017-Jun-25 07:23 182 26.1
2017-Jun-25 07:08 183 24.4
2017-Jun-25 06:53 185 23.3
2017-Jun-25 06:38 185 22.8
2017-Jun-25 06:23 194 22.2
2017-Jun-25 06:08 190 0 gusting 5 21.7
2017-Jun-25 05:53 163 22.2
2017-Jun-25 05:38 161 21.7
2017-Jun-25 05:23 169 21.7
2017-Jun-25 05:08 196 21.7
2017-Jun-25 04:53 165 21.7
2017-Jun-25 04:38 177 21.7
2017-Jun-25 04:23 177 22.2
2017-Jun-25 04:07 177 22.8
2017-Jun-25 03:52 177 22.8
2017-Jun-25 03:38 178 22.2
2017-Jun-25 03:22 178 22.2
2017-Jun-25 03:07 178 22.8
2017-Jun-25 02:52 178 23.3
2017-Jun-25 02:37 178 23.9
2017-Jun-25 02:22 178 23.9
2017-Jun-25 02:07 178 23.9
2017-Jun-25 01:52 178 23.9
2017-Jun-25 01:37 179 24.4
2017-Jun-25 01:22 189 24.4
2017-Jun-25 01:07 189 24.4
2017-Jun-25 00:52 184 25.0
2017-Jun-25 00:37 185 25.6
2017-Jun-25 00:22 188 25.0
2017-Jun-25 00:07 104 25.0
2017-Jun-24 23:52 099 25.6
2017-Jun-24 23:37 099 26.1
2017-Jun-24 23:22 097 26.1
2017-Jun-24 23:07 097 26.1
2017-Jun-24 22:53 097 26.1
2017-Jun-24 22:37 097 26.7
2017-Jun-24 22:22 097 27.8
2017-Jun-24 22:07 097 28.3
2017-Jun-24 21:52 097 28.3
2017-Jun-24 21:37 097 28.3
2017-Jun-24 21:22 083 28.9
2017-Jun-24 21:07 083 30.0
2017-Jun-24 20:52 083 30.6
2017-Jun-24 20:37 102 31.1
2017-Jun-24 20:22 112 31.1
2017-Jun-24 20:07 123 6 gusting 14 30.6
2017-Jun-24 19:52 145 5 gusting 13 31.1
2017-Jun-24 19:36 151 7 gusting 17 31.1
2017-Jun-24 19:22 172 9 gusting 19 31.7
2017-Jun-24 19:06 146 6 gusting 14 31.7
2017-Jun-24 18:51 150 6 gusting 13 32.2
2017-Jun-24 18:36 154 8 gusting 13 32.8
2017-Jun-24 18:21 157 10 gusting 15 32.8
2017-Jun-24 18:07 155 8 gusting 16 33.3
2017-Jun-24 17:51 153 10 gusting 19 33.3
2017-Jun-24 17:36 168 11 gusting 16 33.3
2017-Jun-24 17:21 159 9 gusting 18 33.9
2017-Jun-24 17:06 170 9 gusting 19 33.9
2017-Jun-24 16:51 160 10 gusting 15 34.4
2017-Jun-24 16:36 160 9 gusting 19 33.9
2017-Jun-24 16:21 165 7 gusting 17 33.9
2017-Jun-24 16:06 190 6 gusting 19 34.4
2017-Jun-24 15:51 180 11 gusting 19 34.4
2017-Jun-24 15:36 180 11 gusting 19 33.9
2017-Jun-24 15:21 185 11 gusting 19 34.4
2017-Jun-24 15:06 143 8 gusting 16 34.4
2017-Jun-24 14:51 196 10 gusting 18 34.4
2017-Jun-24 14:36 180 8 gusting 20 34.4
2017-Jun-24 14:21 188 10 gusting 19 34.4
2017-Jun-24 14:06 199 10 gusting 19 34.4
2017-Jun-24 13:51 165 6 gusting 15 34.4
2017-Jun-24 13:36 182 7 gusting 15 35.0
2017-Jun-24 13:21 178 6 gusting 21 35.0
2017-Jun-24 13:06 187 6 gusting 14 35.0
2017-Jun-24 12:51 241 9 gusting 13 35.0
2017-Jun-24 12:36 260 1 gusting 5 35.0
2017-Jun-24 12:21 091 34.4
2017-Jun-24 12:06 257 4 gusting 6 34.4
2017-Jun-24 11:51 297 0 gusting 5 34.4
2017-Jun-24 11:36 327 33.9
2017-Jun-24 11:21 009 4 gusting 8 33.9
2017-Jun-24 11:06 311 33.3
2017-Jun-24 10:51 290 32.2
2017-Jun-24 10:36 279 31.7
2017-Jun-24 10:21 278 1 gusting 4 31.1
2017-Jun-24 10:05 325 30.6
2017-Jun-24 09:50 319 0 gusting 5 30.0
2017-Jun-24 09:35 355 1 gusting 6 29.4
2017-Jun-24 09:20 333 3 gusting 6 29.4
2017-Jun-24 09:05 162 28.9
2017-Jun-24 08:50 162 27.8
2017-Jun-24 08:35 162 27.2
2017-Jun-24 08:20 163 26.7
2017-Jun-24 08:05 163 26.7